This is the latest recevied weather packets stored in our database for station/object K4DNM. If no packets are shown the sender has not sent any weather packets the latest 10 day(s).
| Time | Temp. | Humidity | Pressure | Rain* | Wind** | Luminosity | Snow |
|---|---|---|---|---|---|---|---|
| 1777547698 | 14.44° C | 99% | 1008 hPa | 0 mm | - | 11 W/m² | - |
| 1777547321 | 14.44° C | 99% | 1008 hPa | 0 mm | - | 18 W/m² | - |
| 1777547021 | 15° C | 99% | 1007.9 hPa | 0 mm | - | 11 W/m² | - |
| 1777546720 | 15° C | 99% | 1007.8 hPa | 0 mm | - | 6 W/m² | - |
| 1777546420 | 15° C | 99% | 1007.8 hPa | 0 mm | - | 12 W/m² | - |
| 1777546121 | 15° C | 99% | 1007.9 hPa | 0 mm | - | 6 W/m² | - |
| 1777545821 | 15.56° C | 99% | 1007.7 hPa | 0 mm | - | 3 W/m² | - |
| 1777545508 | 15.56° C | 99% | 1007.7 hPa | 0 mm | - | 3 W/m² | - |
| 1777545268 | 15.56° C | 99% | 1007.7 hPa | 0 mm | - | 2 W/m² | - |
| 1777544908 | 15.56° C | 99% | 1007.7 hPa | 0 mm | - | 0 W/m² | - |
| 1777544606 | 15.56° C | 99% | 1007.7 hPa | 0 mm | - | 0 W/m² | - |
| 1777544366 | 15.56° C | 99% | 1007.6 hPa | 0 mm | - | 0 W/m² | - |
| 1777543993 | 15.56° C | 99% | 1007.6 hPa | 0 mm | - | 0 W/m² | - |
| 1777543696 | 15.56° C | 99% | 1007.6 hPa | 0 mm | - | 0 W/m² | - |
| 1777543393 | 16.11° C | 99% | 1007.5 hPa | 0 mm | - | 0 W/m² | - |
| 1777543153 | 16.11° C | 99% | 1007.5 hPa | 0 mm | - | 0 W/m² | - |
| 1777542793 | 16.11° C | 99% | 1007.6 hPa | 0 mm | - | 0 W/m² | - |
| 1777542553 | 16.11° C | 99% | 1007.7 hPa | 0 mm | - | 0 W/m² | - |
| 1777542193 | 16.11° C | 99% | 1007.7 hPa | 0 mm | - | 0 W/m² | - |
| 1777541893 | 16.11° C | 99% | 1007.8 hPa | 0 mm | - | 0 W/m² | - |
| 1777541593 | 15.56° C | 99% | 1007.7 hPa | 0 mm | - | 0 W/m² | - |
| 1777541294 | 15.56° C | 99% | 1007.5 hPa | 0 mm | - | 0 W/m² | - |
| 1777540994 | 15.56° C | 99% | 1007.4 hPa | 0 mm | - | 0 W/m² | - |
| 1777540755 | 15.56° C | 99% | 1007.5 hPa | 0 mm | - | 0 W/m² | - |
| 1777540454 | 15.56° C | 99% | 1007.6 hPa | 0 mm | - | 0 W/m² | - |
* Rain latest hour (hover to see other rain measurements)
** Current wind speed in m/s (hover to see current wind gust speed)